Skip Page Navigation
NASA JPL Caltech
NASA Logo - Jet Propulsion Laboratory + View the NASA Portal
+ Center for Near-Earth Object Studies
JPL Home Earth Solar System Stars & Galaxies Technology
JPL Solar System Dynamics
BODIES ORBITS EPHEMERIDES TOOLS PHYSICAL DATA DISCOVERY FAQ SITE MAP
IMPORTANT: The SSD Announcement email list is now available. Major changes are coming in the near future, including possible hostname and/or URL changes. To be notified of such changes, subscribe to this email list.

Please visit this page for more details.


JPL Small-Body Database Browser
Search: [ help ]  
7650 Kaname (1990 UG)
Classification: Main-belt Asteroid          SPK-ID: 2007650
Ephemeris | Orbit Diagram | Orbital Elements | Mission Design | Physical Parameters | Discovery Circumstances | Close-Approach Data ]

[ hide orbit diagram ]

For accurate long-term ephemerides, please instead use our Horizons system.This orbit viewer was implemented using two-body methods, and hence should not be used for determining accurate long-term trajectories (over several years or decades) or planetary encounter circumstances.


[ revert to old Java-based viewer ]

Orbital Elements at Epoch 2459000.5 (2020-May-31.0) TDB
Reference: JPL 26 (heliocentric ecliptic J2000)
 Element Value Uncertainty (1-sigma)   Units 
e .03383107082476512 4.6577e-08  
a 2.936969885747533 1.5545e-08 au
q 2.837609049532607 1.3713e-07 au
i 11.5758551917359 6.858e-06 deg
node 205.3182997854825 1.792e-05 deg
peri 220.8862844585151 9.0796e-05 deg
M 280.7040992279146 8.8664e-05 deg
tp 2459405.444871615207
(2021-Jul-09.94487162)
0.00045283 TDB
period 1838.432407754346
5.03
1.4596e-05
3.996e-08
d
yr
n .1958190023639443 1.5547e-09 deg/d
Q 3.03633072196246 1.6071e-08 au
  Orbit Determination Parameters
   # obs. used (total)      1785  
   data-arc span      16078 days (44.02 yr)  
   first obs. used      1975-11-02  
   last obs. used      2019-11-09  
   planetary ephem.      DE431  
   SB-pert. ephem.      SB431-N16  
   condition code      0  
   norm. resid. RMS      .49198  
   source      ORB  
   producer      Otto Matic  
   solution date      2020-Feb-22 18:34:54  

Additional Information
 Earth MOID = 1.85684 au 
 Jupiter MOID = 2.0939 au 
 T_jup = 3.243 
[ show covariance matrix ]

Ephemeris | Orbit Diagram | Orbital Elements | Mission Design | Physical Parameters | Discovery Circumstances | Close-Approach Data ]

Physical Parameter Table
Parameter Symbol Value Units Sigma Reference Notes
absolute magnitude H 12.5   n/a MPO358705  
diameter diameter 17.848 km 0.168 urn:nasa:pds:neowise_diameters_albedos::2.0[mainbelt] (http://adsabs.harvard.edu/abs/2011ApJ...741...68M)  
rotation period rot_per 18.172 h n/a LCDB (Rev. 2019-August); Warner et al., 2009 Result based on less than full coverage, so that the period may be wrong by 30 percent or so.
Published Reference List:
[Waszczak, A.; Chang, C.-K.; Ofeck, E.O.; Laher, F.; et al. (2015) Astron. J. 150, A75.]
[Durech, J.; Hanus, J. (2018) Astron. Astrophys. 620, A91.]
geometric albedo albedo 0.045   0.008 urn:nasa:pds:neowise_diameters_albedos::2.0[mainbelt] (http://adsabs.harvard.edu/abs/2011ApJ...741...68M)  

7650 Kaname           Discovered 1990 Oct. 16 by T. Seki at Geisei.
Named in memory of Kaname Nakamura (1904-1932), Japanese amateur astronomer and volunteer at the Kwasan Observatory. As a member of W. H. Pickering's League of Mars Observers, he was the first in Japan to make systematic observations of that planet. He was also a pioneer in astronomical optics and made many precision mirrors and lenses. Name proposed by the discoverer following a suggestion by T. Sato and A. Fujii.
NOTE: some special characters may not display properly (any characters within {} are an attempt to place the proper accent above a character)
Reference: 19981005/MPCPages.arcLast Updated: 2009-11-17

[ show close-approach data ]
Alternate Designations
 1990 UG = 1975 VP4 = 1980 TM12 = 1995 UL5 
Ephemeris | Orbit Diagram | Orbital Elements | Mission Design | Physical Parameters | Discovery Circumstances | Close-Approach Data ]
ABOUT SSD CREDITS/AWARDS PRIVACY/COPYRIGHT GLOSSARY LINKS
FirstGov 2020-Jun-07 02:41 UT
(server date/time)  
NASA Home Page
Site Manager:   Ryan S. Park
Webmaster  Alan B. Chamberlin